Kuchera_Ratio
0.0 0.0 0.0 0.0 0.0 0.0 0.0 0.0 0.0 0.0 0.0 0.0 0.0 0.0 0.0 0.0 0.0 0.0 0.0 0.0 0.0 0.0 0.0 0.0 0.0 0.0 0.0 0.0 0.0 0.0 0.0 0.0 0.0 0.0 0.0 0.0 0.0 0.0 0.0 0.0 0.0 0.0 0.0
0.0 0.0 0.0 0.0 0.0 0.0 0.0 0.0 0.0 0.0 0.0 0.0 0.0 0.0 0.0 0.0 0.0 0.0 0.0 0.0 0.0 0.0 0.0 0.0 0.0 0.0 0.0 0.0 0.0 0.0 0.0 0.0 0.0 0.0 0.0 0.0 0.0 0.0 0.0 0.0 0.0 0.0 0.0
0.0 0.0 0.0 0.0 0.0 0.0 0.0 0.0 0.0 0.0 0.0 0.0 0.0 0.0 0.0 0.0 0.0 0.0 0.0 0.0 0.0 0.0 0.0 0.0 0.0 0.0 0.0 0.0 0.0 0.0 0.0 0.0 0.0 0.0 0.0 0.0 0.0 0.0 0.0 0.0 0.0 0.0 0.0
0.0 0.0 0.0 0.0 0.0 0.0 0.0 0.0 0.0 0.0 0.0 0.0 0.0 0.0 0.0 0.0 0.0 0.0 0.0 0.0 0.0 0.0 0.0 0.0 0.0 0.0 0.0 0.0 0.0 0.0 0.0 0.0 0.0 0.0 0.0 0.0 0.0 0.0 0.0 0.0 0.0 0.0 0.0
0.0 0.0 0.0 0.0 0.0 0.0 0.0 0.0 0.0 0.0 0.0 0.0 0.0 0.0 0.0 0.0 0.0 0.0 0.0 0.0 0.0 0.0 0.0 0.0 0.0 0.0 0.0 0.0 0.0 0.0 0.0 0.0 0.0 0.0 0.0 0.0 0.0 0.0 0.0 0.0 0.0 0.0 0.0
0.0 0.0 0.0 0.0 0.0 0.0 0.0 0.0 0.0 0.0 0.0 0.0 0.0 0.0 0.0 0.0 0.0 0.0 0.0 0.0 0.0 0.0 0.0 0.0 0.0 0.0 0.0 0.0 0.0 0.0 0.0 0.0 0.0 0.0 0.0 0.0 0.0 0.0 0.0 0.0 0.0 0.0 0.0
0.0 0.0 0.0 0.0 0.0 0.0 0.0 0.0 0.0 0.0 0.0 0.0 0.0 0.0 0.0 0.0 0.0 0.0 0.0 0.0 0.0 0.0 0.0 0.0 0.0 0.0 0.0 0.0 0.0 0.0 0.0 0.0 0.0 0.0 0.0 0.0 0.0 0.0 0.0 0.0 0.0 0.0 0.0
0.0 0.0 0.0 0.0 0.0 0.0 0.0 0.0 0.0 0.0 0.0 0.0 0.0 0.0 0.0 0.0 0.0 0.0 0.0 0.0 0.0 0.0 0.0 0.0 0.0 0.0 0.0 0.0 0.0 0.0 0.0 0.0 0.0 0.0 0.0 0.0 0.0 0.0 0.0 0.0 0.0 0.0 0.0
0.0 0.0 0.0 0.0 0.0 0.0 0.0 0.0 0.0 0.0 0.0 0.0 0.0 0.0 0.0 0.0 0.0 0.0 0.0 0.0 0.0 0.0 0.0 0.0 0.0 0.0 0.0 0.0 0.0 1.4 0.0 0.0 0.0 0.0 0.0 0.0 0.0 0.0 0.0 0.0 0.0 0.0 0.0
0.0 0.0 0.0 0.0 0.0 0.0 0.0 0.2 0.0 0.0 0.2 0.0 0.0 0.0 0.0 0.0 0.0 0.0 0.0 0.0 0.0 0.0 0.0 0.0 0.0 0.0 0.0 0.0 0.0 0.9 3.8 2.1 0.8 0.0 0.0 0.0 0.0 0.0 0.0 0.0 0.0 0.0 0.0
0.0 0.0 0.0 0.0 0.0 0.0 0.0 0.0 0.8 0.9 0.7 0.9 0.0 0.0 0.0 0.0 0.0 0.0 0.0 0.0 0.0 0.1 0.0 0.0 0.0 0.0 0.0 0.0 0.0 0.0 1.2 0.0 0.0 0.7 1.9 1.0 0.0 0.0 0.0 0.0 0.0 0.0 0.0
0.0 0.2 0.0 0.0 0.0 0.0 0.1 0.1 0.0 0.0 0.6 0.7 0.4 0.0 0.0 0.0 0.0 0.0 0.0 0.0 0.0 0.3 1.0 0.0 0.0 0.0 0.0 0.0 0.0 0.0 0.0 0.0 1.8 4.0 4.5 4.0 2.8 1.6 0.0 0.0 0.0 0.0 0.0
0.6 1.0 0.4 0.0 0.0 0.0 0.7 1.8 2.0 1.3 2.7 3.3 4.0 3.8 2.4 0.0 0.0 0.0 0.0 0.0 0.0 0.0 0.0 0.0 0.0 0.0 0.0 0.0 0.0 0.0 0.0 2.5 4.3 6.0 6.3 6.1 5.0 3.1 2.3 1.1 0.6 1.7 1.0
3.0 2.1 1.2 2.1 1.8 1.2 1.1 1.7 3.2 4.4 4.9 5.5 5.8 6.1 5.2 4.4 3.4 1.3 0.4 0.9 0.0 0.0 0.0 0.1 0.0 0.0 0.0 0.0 0.0 0.1 1.5 3.1 5.2 6.5 6.6 5.4 3.8 4.9 5.4 2.8 3.3 1.6 4.4
3.0 2.7 2.6 2.3 2.8 2.8 2.6 3.0 3.6 2.5 3.1 6.2 6.4 6.5 8.3 8.3 5.0 1.7 2.0 3.0 2.6 1.8 1.7 2.8 4.4 4.4 5.3 4.6 3.7 3.4 3.7 4.7 6.3 6.3 7.1 7.3 7.4 6.6 6.6 4.4 4.5 4.5 5.9
5.4 4.2 3.8 4.9 4.3 4.1 4.7 4.6 0.5 1.0 1.4 2.4 3.0 3.9 3.9 2.8 2.2 2.4 2.5 1.8 1.1 0.4 4.6 7.5 7.7 6.9 7.2 6.7 7.1 7.4 6.4 5.6 6.7 7.3 8.7 8.2 8.6 8.7 8.4 6.7 6.2 6.8 7.3
6.8 5.9 5.5 5.6 5.2 6.2 6.8 7.3 9.4 4.4 2.2 2.5 2.7 2.7 2.5 3.1 3.1 3.5 3.1 2.7 1.6 1.5 8.0 8.2 8.0 7.5 7.7 7.8 8.1 8.5 9.1 7.3 7.2 8.9 9.9 9.9 8.6 8.4 7.9 8.1 7.0 7.7 7.9
6.3 5.8 6.8 6.9 6.8 6.9 7.4 8.2 8.2 9.9 11.1 9.4 3.9 4.1 3.4 3.3 3.4 3.8 3.5 3.4 7.6 5.2 7.1 8.2 8.4 7.9 8.4 9.2 9.1 9.4 9.4 9.2 9.3 10.1 9.8 10.4 8.8 9.0 9.3 8.5 7.8 7.9 7.8
6.9 7.0 6.9 7.3 6.9 6.3 6.9 8.0 9.0 9.6 9.8 10.1 9.2 6.7 5.3 4.8 4.7 4.4 4.1 8.7 9.8 10.1 9.0 9.4 8.8 9.3 9.8 9.6 9.6 10.0 11.1 10.5 10.2 10.4 10.4 10.4 9.6 9.4 9.7 8.3 7.8 5.5 6.2
6.6 6.4 7.8 8.3 7.6 7.6 8.4 9.8 10.9 11.0 11.0 11.2 11.4 10.8 9.5 9.6 12.1 11.6 10.3 10.4 10.2 10.1 9.7 10.5 10.3 10.2 10.5 10.8 10.9 11.0 11.7 11.4 11.6 11.4 11.2 10.7 9.6 9.4 10.4 8.7 8.1 8.3 7.9
7.1 7.5 7.2 7.5 8.9 9.0 9.6 11.0 11.2 11.3 12.1 11.9 11.5 9.6 6.8 11.3 12.9 12.5 12.3 11.8 11.2 11.1 11.7 11.6 11.9 11.7 11.7 11.9 12.3 12.6 12.6 12.4 11.5 11.3 11.2 10.7 9.9 11.1 9.7 8.7 8.0 7.9 7.9
8.1 8.7 8.8 9.2 9.0 9.6 9.8 9.8 11.0 11.6 11.9 12.3 12.2 10.6 8.2 11.2 12.3 12.5 12.4 12.1 11.7 11.5 11.4 12.2 12.8 12.8 12.6 12.9 13.1 13.4 13.6 13.3 12.1 11.3 11.1 10.6 10.8 10.2 9.8 9.4 8.3 8.7 8.4
8.9 9.4 9.7 9.9 10.1 9.8 10.7 10.8 11.4 12.1 12.6 12.5 12.3 12.2 12.1 12.5 12.4 12.7 12.6 12.2 12.1 12.3 12.1 12.3 12.8 13.0 12.2 12.1 12.0 12.5 13.2 13.5 12.7 10.9 11.5 11.1 11.3 10.7 10.2 10.0 9.0 9.6 10.1
9.4 10.4 10.8 11.3 12.1 12.1 12.2 12.7 12.7 12.5 12.5 12.5 12.5 12.6 12.8 12.8 12.9 12.9 12.8 12.9 12.9 13.1 12.9 13.0 13.0 13.3 13.2 12.9 12.3 12.2 12.1 12.0 11.1 12.0 12.1 11.5 11.6 10.2 10.2 9.4 9.0 9.5 10.5
9.9 11.2 12.4 13.3 13.5 13.5 13.4 13.3 13.2 13.1 13.1 13.1 13.3 13.3 13.2 13.1 13.4 13.4 13.1 13.2 13.4 13.6 13.6 13.3 13.4 13.5 13.6 13.6 13.4 13.2 12.6 10.7 11.9 12.0 11.6 10.4 10.4 9.9 9.7 9.2 9.2 10.1 10.6
11.7 12.8 13.6 14.1 14.3 13.8 13.8 14.2 14.2 13.9 14.2 14.3 14.2 14.2 13.8 13.9 13.7 13.4 13.1 13.2 13.5 13.4 13.4 13.3 13.4 13.5 13.6 13.5 13.5 12.7 10.5 9.3 9.5 7.4 8.6 9.6 10.2 9.6 8.7 10.0 10.0 11.1 11.5